2023/10/02 00:00:00, 0.7,14.5
2023/10/02 00:10:00, 0.7,14.4
2023/10/02 00:20:00, 0.7,14.3
2023/10/02 00:30:00, 0.7,14.4
2023/10/02 00:40:00, 0.7,14.5
2023/10/02 00:50:00, 0.7,14.5
2023/10/02 01:00:00, 0.7,14.6
2023/10/02 01:10:00, 0.8,14.6
2023/10/02 01:20:00, 0.8,14.5
2023/10/02 01:30:00, 0.8,14.5
2023/10/02 01:40:00, 0.7,14.4
2023/10/02 01:50:00, 0.7,14.0
2023/10/02 02:00:00, 0.7,14.1
2023/10/02 02:10:00, 0.7,14.3
2023/10/02 02:20:00, 0.8,14.3
2023/10/02 02:30:00, 0.7,14.2
2023/10/02 02:40:00, 0.7,14.1
2023/10/02 02:50:00, 0.7,14.1
2023/10/02 03:00:00, 0.7,14.2
2023/10/02 03:10:00, 0.8,14.3
2023/10/02 03:20:00, 0.8,14.1
2023/10/02 03:30:00, 0.7,13.9
2023/10/02 03:40:00, 0.8,13.9
2023/10/02 03:50:00, 0.8,13.7
2023/10/02 04:00:00, 0.8,13.8
2023/10/02 04:10:00, 0.8,13.7
2023/10/02 04:20:00, 0.8,13.6
2023/10/02 04:30:00, 0.8,13.7
2023/10/02 04:40:00, 0.8,13.7
2023/10/02 04:50:00, 0.8,13.6
2023/10/02 05:00:00, 0.8,13.5
2023/10/02 05:10:00, 0.8,13.5
2023/10/02 05:20:00, 0.7,13.6
2023/10/02 05:30:00, 0.7,13.2
2023/10/02 05:40:00, 0.8,13.3
2023/10/02 05:50:00, 0.7,13.5
2023/10/02 06:00:00, 0.8,13.2
2023/10/02 06:10:00, 0.8,13.1
2023/10/02 06:20:00, 0.8,13.2
2023/10/02 06:30:00, 0.8,13.1
2023/10/02 06:40:00, 0.8,13.1
2023/10/02 06:50:00, 0.8,13.2
2023/10/02 07:00:00, 0.7,13.2
2023/10/02 07:10:00, 0.8,13.3
2023/10/02 07:20:00, 0.8,13.4
2023/10/02 07:30:00, 0.7,13.8
2023/10/02 07:40:00, 0.8,14.0
2023/10/02 07:50:00, 0.7,14.1
2023/10/02 08:00:00, 0.8,13.7
2023/10/02 08:10:00, 0.7,14.1
2023/10/02 08:20:00, 0.7,16.8
2023/10/02 08:30:00, 0.7,17.4
2023/10/02 08:40:00, 0.7,16.9
2023/10/02 08:50:00, 0.7,16.8
2023/10/02 09:00:00, 0.6,17.3
2023/10/02 09:10:00, 0.5,18.1
2023/10/02 09:20:00, 0.6,19.0
2023/10/02 09:30:00, 0.6,19.5
2023/10/02 09:40:00, 0.6,20.1
2023/10/02 09:50:00, 0.6,21.1
2023/10/02 10:00:00, 0.6,22.6
2023/10/02 10:10:00, 0.6,22.1
2023/10/02 10:20:00, 0.7,23.1
2023/10/02 10:30:00, 0.7,22.6
2023/10/02 10:40:00, 0.8,22.3
2023/10/02 10:50:00, 0.7,23.3
2023/10/02 11:00:00, 0.8,23.0
2023/10/02 11:10:00, 0.9,23.3
2023/10/02 11:20:00, 1.0,22.5
2023/10/02 11:30:00, 1.1,24.0
2023/10/02 11:40:00, 1.1,24.0
2023/10/02 11:50:00, 1.1,23.9
2023/10/02 12:00:00, 1.0,23.8
2023/10/02 12:10:00, 1.3,24.0
2023/10/02 12:20:00, 1.4,24.4
2023/10/02 12:30:00, 1.4,24.1
2023/10/02 12:40:00, 1.5,24.8
2023/10/02 12:50:00, 1.5,24.5
2023/10/02 13:00:00, 1.4,24.0
2023/10/02 13:10:00, 1.5,24.8
2023/10/02 13:20:00, 1.5,24.8
2023/10/02 13:30:00, 1.5,25.1
2023/10/02 13:40:00, 1.5,24.2
2023/10/02 13:50:00, 1.7,23.9
2023/10/02 14:00:00, 1.9,24.4
2023/10/02 14:10:00, 1.9,24.2
2023/10/02 14:20:00, 1.5,24.0
2023/10/02 14:30:00, 1.5,24.0
2023/10/02 14:40:00, 1.4,24.0
2023/10/02 14:50:00, 1.5,23.7
2023/10/02 15:00:00, 1.6,23.4
2023/10/02 15:10:00, 1.6,23.1
2023/10/02 15:20:00, 1.7,23.0
2023/10/02 15:30:00, 1.6,22.9
2023/10/02 15:40:00, 1.6,23.1
2023/10/02 15:50:00, 1.7,22.6
2023/10/02 16:00:00, 1.6,22.1
2023/10/02 16:10:00, 1.7,22.0
2023/10/02 16:20:00, 1.7,21.5
2023/10/02 16:30:00, 1.8,22.1
2023/10/02 16:40:00, 1.8,22.3
2023/10/02 16:50:00, 1.8,22.1
2023/10/02 17:00:00, 1.8,22.0
2023/10/02 17:10:00, 1.9,21.1
2023/10/02 17:20:00, 1.8,18.3
2023/10/02 17:30:00, 1.8,17.6
2023/10/02 17:40:00, 1.8,17.1
2023/10/02 17:50:00, 1.9,16.4
2023/10/02 18:00:00, 1.9,15.9
2023/10/02 18:10:00, 1.9,15.1
2023/10/02 18:20:00, 1.9,14.9
2023/10/02 18:30:00, 1.9,14.8
2023/10/02 18:40:00, 1.9,14.4
2023/10/02 18:50:00, 1.9,14.4
2023/10/02 19:00:00, 1.9,14.0
2023/10/02 19:10:00, 1.9,14.1
2023/10/02 19:20:00, 1.8,13.6
2023/10/02 19:30:00, 1.8,13.7
2023/10/02 19:40:00, 1.8,13.4
2023/10/02 19:50:00, 2.0,13.3
2023/10/02 20:00:00, 1.9,13.3
2023/10/02 20:10:00, 1.9,13.4
2023/10/02 20:20:00, 1.9,13.2
2023/10/02 20:30:00, 1.9,13.0
2023/10/02 20:40:00, 1.9,13.1
2023/10/02 20:50:00, 1.9,13.0
2023/10/02 21:00:00, 1.9,13.0
2023/10/02 21:10:00, 1.9,12.6
2023/10/02 21:20:00, 1.8,12.4
2023/10/02 21:30:00, 1.8,12.5
2023/10/02 21:40:00, 1.9,12.5
2023/10/02 21:50:00, 1.9,12.4
2023/10/02 22:00:00, 1.9,12.1
2023/10/02 22:10:00, 1.9,12.4
2023/10/02 22:20:00, 1.8,12.4
2023/10/02 22:30:00, 1.8,11.9
2023/10/02 22:40:00, 1.8,12.0
2023/10/02 22:50:00, 1.7,11.8
2023/10/02 23:00:00, 1.7,11.7
2023/10/02 23:10:00, 1.8,12.0
2023/10/02 23:20:00, 1.8,11.7
2023/10/02 23:30:00, 1.7,11.8
2023/10/02 23:40:00, 1.8,11.4
2023/10/02 23:50:00, 1.7,11.4
